| time (UTC) | temp C | wind direction | speed KPH | gust KPH | rain 1hr cm | rain 24hr cm | rain mn cm | humidity % | barometer mb |
| 20260504172825 | 27 | 273 | 0.0 | 20.9 | 0.00 | 0.00 | 0.00 | 35 | 1000.3 |
| 20260504045824 | 13 | 254 | 0.0 | 0.0 | 0.00 | 0.00 | 0.00 | 48 | 1006.6 |
| 20260504042824 | 14 | 254 | 0.0 | 0.0 | 0.00 | 0.00 | 0.00 | 45 | 1006.8 |
| 20260504035824 | 15 | 254 | 0.0 | 0.0 | 0.00 | 0.00 | 0.00 | 42 | 1007.1 |
| 20260504032824 | 16 | 254 | 0.0 | 0.0 | 0.00 | 0.00 | 0.00 | 38 | 1007.6 |
| 20260504025824 | 16 | 254 | 0.0 | 0.0 | 0.00 | 0.00 | 0.00 | 35 | 1007.7 |
| 20260504022824 | 17 | 254 | 0.0 | 0.0 | 0.00 | 0.00 | 0.00 | 33 | 1007.6 |
| 20260504015824 | 18 | 254 | 0.0 | 0.0 | 0.00 | 0.00 | 0.00 | 31 | 1007.3 |
| 20260504012824 | 20 | 254 | 0.0 | 0.0 | 0.00 | 0.00 | 0.00 | 28 | 1007.2 |
| 20260504005824 | 21 | 254 | 0.0 | 9.7 | 0.00 | 0.00 | 0.00 | 26 | 1007.4 |
| 20260504002824 | 22 | 342 | 0.0 | 12.9 | 0.00 | 0.00 | 0.00 | 24 | 1007.4 |
| 20260503235824 | 23 | 315 | 0.0 | 12.9 | 0.00 | 0.00 | 0.00 | 24 | 1007.4 |
| 20260503232824 | 23 | 344 | 6.4 | 30.6 | 0.00 | 0.00 | 0.00 | 23 | 1007.4 |
| 20260503225824 | 23 | 323 | 0.0 | 30.6 | 0.00 | 0.00 | 0.00 | 25 | 1007.5 |
| 20260503222824 | 23 | 265 | 24.1 | 27.4 | 0.00 | 0.00 | 0.00 | 24 | 1007.6 |
| 20260503215824 | 23 | 323 | 6.4 | 37.0 | 0.00 | 0.00 | 0.00 | 27 | 1007.7 |
| 20260503212824 | 24 | 342 | 17.7 | 30.6 | 0.00 | 0.00 | 0.00 | 26 | 1007.7 |
| 20260503205824 | 25 | 355 | 3.2 | 33.8 | 0.00 | 0.00 | 0.00 | 28 | 1007.8 |
| 20260503202824 | 25 | 275 | 9.7 | 46.7 | 0.00 | 0.00 | 0.00 | 27 | 1008.2 |
| 20260503195824 | 25 | 327 | 6.4 | 40.2 | 0.00 | 0.00 | 0.00 | 28 | 1008.3 |
| 20260503192823 | 24 | 246 | 17.7 | 43.5 | 0.00 | 0.00 | 0.00 | 32 | 1008.5 |
| 20260503185824 | 24 | 240 | 12.9 | 37.0 | 0.00 | 0.00 | 0.00 | 28 | 1008.5 |
| 20260503182824 | 23 | 336 | 17.7 | 43.5 | 0.00 | 0.00 | 0.00 | 29 | 1008.6 |
| 20260503175824 | 23 | 321 | 3.2 | 37.0 | 0.00 | 0.00 | 0.00 | 31 | 1008.8 |